カタログに戻る

STARLINK-5817

運用中通信VLEO
NORAD 55779·PAYLOAD·🇺🇸 United States

打ち上げ Mar 3, 2023 から Vandenberg Space Force Base

Loading…

次のパス (今後24時間)

TLE

最新Source: CelesTrak SupGP

元期: Sep 15, 2026, 02:23 UTC

1 55779C 23028AQ  26258.09979167 -.00044816  00000+0 -37553-2 0  2586
2 55779  69.9997  86.6859 0002717 278.0313  55.5935 14.98358881    15

AllMySatでSTARLINK-5817をリアルタイム追跡

Download on the App Store